sat.trackr.live / text

‹ back to catalog

STARLINK-32188

NORAD 60365 · 2024-138L

PAYLOAD ACTIVE UNKNOWN

§ Identity

Operator
Country
US
Launch date
2024-08-04
Launch site
AFWTR
Launch vehicle
Mass (kg)
RCS (m²)

Purposes: comms

External: N2YO · Heavens-Above · Gunter

§ Orbital elements

Epoch: 2026-05-24T21:13:33.466368Z

Period
94.01 min
Inclination
53.1615°
Eccentricity
0.0001321
Mean motion
15.31701056 rev/d
Perigee alt
469.8 km
Apogee alt
471.6 km
Semi-major
6,848.9 km
B*
3.6790e-5
RAAN
315.6655°
Arg perigee
82.7060°
Mean anomaly
277.4091°
Rev number
10,229

§ Raw data

STARLINK-321881 60365U 24138L   26144.88441512  .00000777  00000+0  36790-4 0  99972 60365  53.1615 315.6655 0001321  82.7060 277.4091 15.31701056102297

JSON: /api/v1/satellites/60365 · /tle

For live sub-satellite position, see the globe view (requires WebGL).

§ Visibility from observer

Set your observer location to see the next 7 days of passes ≥ 10°. The values pass through the URL so the page stays shareable.

No JS? Fill the form by hand. The geolocation button needs JavaScript.